TimeCST,TemperatureF,Dew PointF,Humidity,Sea Level PressureIn,VisibilityMPH,Wind Direction,Wind SpeedMPH,Gust SpeedMPH,PrecipitationIn,Events,Conditions,WindDirDegrees,DateUTC
12:55 AM,48.2,44.2,86,30.26,10.0,Calm,Calm,-,N/A,,Mostly Cloudy,0,2013-01-20 06:55:00
1:55 AM,47.5,44.1,88,30.25,10.0,Calm,Calm,-,N/A,,Overcast,0,2013-01-20 07:55:00
2:55 AM,44.1,42.4,94,30.25,10.0,NNW,3.5,-,N/A,,Scattered Clouds,340,2013-01-20 08:55:00
3:55 AM,42.4,40.6,93,30.24,10.0,Calm,Calm,-,N/A,,Clear,0,2013-01-20 09:55:00
4:55 AM,40.3,38.8,95,30.24,10.0,Calm,Calm,-,N/A,,Clear,0,2013-01-20 10:55:00
5:29 AM,37.4,35.6,93,30.25,2.5,NNW,3.5,-,N/A,,Clear,340,2013-01-20 11:29:00
5:30 AM,37.4,35.6,93,30.25,2.0,Calm,Calm,-,N/A,,Clear,0,2013-01-20 11:30:00
5:31 AM,37.4,35.6,93,30.25,1.5,Calm,Calm,-,N/A,,Clear,0,2013-01-20 11:31:00
5:32 AM,37.4,35.6,93,30.25,1.2,Calm,Calm,-,N/A,,Clear,0,2013-01-20 11:32:00
5:33 AM,37.4,37.4,100,30.25,1.0,Calm,Calm,-,N/A,,Clear,0,2013-01-20 11:33:00
5:35 AM,39.2,37.4,93,30.25,0.8,Calm,Calm,-,N/A,,Clear,0,2013-01-20 11:35:00
5:44 AM,39.2,37.4,93,30.25,1.0,NNW,3.5,-,N/A,,Clear,340,2013-01-20 11:44:00
5:47 AM,39.2,37.4,93,30.25,1.2,NNW,3.5,-,N/A,,Clear,340,2013-01-20 11:47:00
5:49 AM,39.2,37.4,93,30.25,1.5,Calm,Calm,-,N/A,,Clear,0,2013-01-20 11:49:00
5:51 AM,39.2,37.4,93,30.25,2.0,Calm,Calm,-,N/A,,Clear,0,2013-01-20 11:51:00
5:52 AM,39.2,37.4,93,30.25,2.5,Calm,Calm,-,N/A,,Clear,0,2013-01-20 11:52:00
5:54 AM,39.2,37.4,93,30.25,3.0,Calm,Calm,-,N/A,,Clear,0,2013-01-20 11:54:00
5:55 AM,38.7,37.6,96,30.25,2.5,Calm,Calm,-,N/A,,Clear,0,2013-01-20 11:55:00
6:55 AM,37.2,36.1,96,30.25,10.0,Calm,Calm,-,N/A,,Clear,0,2013-01-20 12:55:00
7:55 AM,45.0,42.6,91,30.27,10.0,Calm,Calm,-,N/A,,Clear,0,2013-01-20 13:55:00
8:55 AM,52.9,42.8,69,30.29,10.0,North,4.6,-,N/A,,Partly Cloudy,350,2013-01-20 14:55:00
9:55 AM,59.0,44.6,59,30.29,10.0,NNW,6.9,-,N/A,,Clear,340,2013-01-20 15:55:00
10:55 AM,62.1,41.9,48,30.25,10.0,North,10.4,-,N/A,,Clear,350,2013-01-20 16:55:00
11:55 AM,63.5,40.3,43,30.20,10.0,Calm,Calm,-,N/A,,Clear,0,2013-01-20 17:55:00
12:55 PM,65.3,39.4,39,30.17,10.0,North,4.6,-,N/A,,Clear,360,2013-01-20 18:55:00
1:55 PM,65.7,38.8,37,30.15,10.0,Variable,4.6,-,N/A,,Clear,0,2013-01-20 19:55:00
2:55 PM,66.4,39.4,37,30.14,10.0,WNW,3.5,-,N/A,,Clear,300,2013-01-20 20:55:00
3:55 PM,65.8,39.7,38,30.13,10.0,NW,3.5,-,N/A,,Clear,320,2013-01-20 21:55:00
4:55 PM,63.1,41.2,45,30.14,10.0,NNW,3.5,-,N/A,,Clear,330,2013-01-20 22:55:00
5:55 PM,53.8,41.9,64,30.14,10.0,Calm,Calm,-,N/A,,Clear,0,2013-01-20 23:55:00
6:55 PM,49.8,43.0,77,30.15,10.0,Calm,Calm,-,N/A,,Clear,0,2013-01-21 00:55:00
7:55 PM,46.4,42.4,86,30.16,10.0,Calm,Calm,-,N/A,,Clear,0,2013-01-21 01:55:00
8:55 PM,43.7,40.6,89,30.16,10.0,Calm,Calm,-,N/A,,Clear,0,2013-01-21 02:55:00
9:55 PM,42.1,39.7,91,30.17,10.0,Calm,Calm,-,N/A,,Clear,0,2013-01-21 03:55:00
10:55 PM,41.7,39.2,91,30.17,10.0,Calm,Calm,-,N/A,,Clear,0,2013-01-21 04:55:00
11:55 PM,43.2,41.2,93,30.15,10.0,Calm,Calm,-,N/A,,Clear,0,2013-01-21 05:55:00